Regional Weather Roundup
Issued by NWS Charleston, SC

Current Version | Previous Version | Graphics & Text | Print | Product List | Glossary On
Versions: 1 2 3 4 5 6 7 8 9 10 11 12 13 14 15 16 17 18 19 20 21 22 23 24 25 26 27 28 29 30 31 32 33 34 35 36 37 38 39 40 41 42 43 44 45 46 47 48 49 50
000 ASUS42 KCHS 290828 RWRCHS REGIONAL WEATHER ROUNDUP NATIONAL WEATHER SERVICE CHARLESTON SC 400 AM EDT FRI APR 29 2016 NOTE: "FAIR" INDICATES FEW OR NO CLOUDS BELOW 12,000 FEET WITH NO SIGNIFICANT WEATHER AND/OR OBSTRUCTIONS TO VISIBILITY. NOT ALL STATIONS ARE QUALITY CONTROLLED. USE DATA WITH CAUTION... ESPECIALLY DEWPOINT OBSERVATIONS. SCZ027-030-031-034>040-042>050-290900- ...SOUTHEAST SOUTH CAROLINA... CITY SKY/WX TMP DP RH WIND PRES REMARKS N CHARLESTON PTCLDY 70 66 87 SW6 29.91S WATERFRONT PRK N/A 70 70 100 CALM 29.90S MOUNT PLEASANT FAIR 70 70 100 SW3 29.92R JOHNS ISLAND FAIR 70 68 94 SW3 29.92S PINOPOLIS N/A 72 68 88 SW8 29.81S MONCKS CORNER FAIR 66 63 88 SW6 29.90S SUMMERVILLE FAIR 64 64 100 S3 29.92S FOG BEAUFORT MCAS CLEAR 70 67 90 SW7 29.93S BEAUFORT ARPT FAIR 72 66 83 SW8 29.93S HILTON HEAD IS CLOUDY 72 70 94 SW5 29.95R WALTERBORO SUNNY 70 70 100 W8 29.93S ALLENDALE FAIR 70 68 94 CALM 29.92S ...SOUTHERN MIDLANDS AND PEE DEE... CITY SKY/WX TMP DP RH WIND PRES REMARKS GEORGETOWN FAIR 68 64 88 SW7 29.91S KINGSTREE FAIR 64 63 94 CALM 29.90R FOG ORANGEBURG CLEAR 71 67 87 W7 29.91S BARNWELL FAIR 72 72 100 SW3 29.93S AIKEN FAIR 64 63 94 W3 29.96R MANNING NOT AVBL COLUMBIA PTCLDY 70 66 87 SW3 29.90R SUMTER CLEAR 69 66 91 W3 29.88R FLORENCE CLEAR 68 66 93 W5 29.88S MYRTLE BEACH CLEAR 72 63 73 W8 29.90S N MYRTLE BEACH CLEAR 71 67 87 W7 29.87S $$ GAZ063-065-086>088-099>101-113>116-118-119-134>141-150-290900- ...SOUTHEAST GEORGIA... CITY SKY/WX TMP DP RH WIND PRES REMARKS SAVANNAH ARPT MOCLDY 70 66 87 SW3 29.95R HUNTER AAF PTCLDY 69 69 100 SW5 29.92S FORT STEWART PTCLDY 69 66 90 CALM 29.93S STATESBORO CLEAR 70 70 100 CALM 29.95R FOG SYLVANIA SUNNY 68 68 100 CALM 29.95R FOG CLAXTON FAIR 65 65 100 CALM 29.96R FOG ...CSRA...CENTRAL AND FAR SOUTHEAST GEORGIA... CITY SKY/WX TMP DP RH WIND PRES REMARKS THOMSON CLEAR 69 69 100 CALM 29.99R AUGUSTA-BUSH CLEAR 68 66 93 W3 29.92R AUGUSTA-DANIEL CLEAR 72 66 81 W7 29.93S SWAINSBORO FAIR 68 66 94 CALM 29.96S FOG VIDALIA CLEAR 66 64 94 SW3 29.96S FOG EASTMAN FAIR N/A N/A N/A CALM 29.99S HAZLEHURST FAIR 69 69 100 CALM 29.96R ALMA MOCLDY 67 67 100 CALM 29.97R FOG WAYCROSS FOG 69 69 100 W5 29.97R VSB 1/4 JESUP FAIR 70 70 100 CALM 29.96S FOG BAXLEY FAIR 68 66 94 CALM 29.96S FOG BRUNSWICK CLOUDY 72 70 94 W6 29.97R SAINT SIMONS MOCLDY 70 69 97 SW8 29.95S $$ SCZ027-028-034-036>038-045-046-048>050-GAZ119-141-290900- ...LAKE AND SUPPLEMENTAL COASTAL OBSERVATIONS... STATION/POSITION TIME TEMP WIND PRES WAVE SWELL AIR SEA DIR/SP/G HT/PER HT/PER/DIR (UTC) (F) (DEG/KT/KT) (MB) (FT/S) (FT/S/D) WINYAH BAY 0745 71 250/ 7 1011.0F LAKE MURRAY 0700 72 290/ 5/ 8 1012.2S ACE BASIN NERRS 0745 71 CALM 1013.0S FORT PULASKI 0800 72 71 240/ 5/ 7 1014.1R SAPELO ISLAND 0800 71 230/ 4 1014.0S $$ ANZ835-935-AMZ111-154-330-350-352-354-370-450-454-472-290900- ...C-MAN AND BUOY OBSERVATIONS... STATION/POSITION TIME TEMP WIND PRES WAVE SWELL AIR SEA DIR/SP/G HT/PER HT/PER/DIR (UTC) (F) (DEG/KT/KT) (MB) (FT/S) (FT/S/D) BUOY 41004 0750 73 71 230/ 14/ 17 1012.6S 3/ 5 2/11 BUOY 41008 NOT AVBL FOLLY BEACH CMAN 0800 71 220/ 6/ 7 1013.2S CAPERS NEARSHORE 0708 71 70 230/ 12/ 16 1012.7F FRIPP NEARSHORE 0808 72 71 250/ 12/ 14 1012.9R STATION/POSITION TIME TEMP WIND PRES WAVE SWELL AIR SEA DIR/SP/G HT/PER HT/PER/DIR (UTC) (F) (DEG/KT/KT) (MB) (FT/S) (FT/S/D) 5E ST. MARYS GA 0721 72 N/A 1/12 FRYING PAN BUOY 0800 72 69 230/ 14/ 16 1012.0S BUOY 41025 0750 71 71 260/ 10/ 12 1011.3F 3/ 5 2/190/ 6 CAPE LOOKOUT NC 0800 69 220/ 6/ 8 1011.2F BUOY 41002 0750 71 71 190/ 12/ 14 1014.7F 2/11 2/ 60/11 BUOY 41010 0720 75 76 190/ 10/ 12 1015.0F ST AUGUSTINE FL 0800 71 69 280/ 5/ 6 1015.5R $$

USA.gov is the U.S. government's official web portal to all federal, state and local government web resources and services.